Wetbulb
77.47 77.62 75.98 73.00 65.43 63.28 57.92 59.41 62.76 61.79 62.26 64.31 63.23 60.15 59.73 62.09 58.74 54.50 68.02 69.74 69.82 73.72 74.42 75.30 76.79 76.46 76.89 77.33 77.45 76.78 76.87 77.30 77.44 77.64 77.64 76.88 76.54 76.74 76.38 76.22 76.44 76.30 75.91 75.49 75.29 75.39 75.96 76.28 76.61
77.47 76.88 75.42 71.68 60.84 57.09 57.47 61.09 59.47 62.78 64.50 62.42 62.16 62.28 62.21 61.05 64.47 64.85 66.70 70.90 73.30 73.24 74.18 75.66 77.18 76.92 77.19 77.11 77.25 77.47 77.37 77.20 77.15 77.04 77.43 77.24 76.52 76.33 76.22 76.47 76.53 75.75 75.60 75.99 75.74 76.24 76.21 76.30 76.64
78.15 76.48 71.86 68.08 61.59 55.15 58.09 62.62 63.48 63.73 63.98 64.68 64.17 66.15 64.47 61.95 65.68 66.31 70.62 72.98 73.96 73.49 73.71 75.89 77.30 77.56 77.46 77.35 77.43 77.57 77.61 77.30 77.21 77.02 76.61 76.41 76.25 76.22 76.25 76.47 76.22 75.91 76.08 76.25 76.33 76.67 76.30 76.47 76.55
75.50 75.45 73.32 61.95 59.27 62.03 62.20 64.14 65.56 64.59 64.80 66.23 65.84 62.71 66.31 68.20 67.04 69.32 72.57 73.44 73.06 72.39 74.68 76.63 77.38 76.98 77.32 77.38 77.38 77.27 77.43 77.13 77.10 76.77 76.36 76.22 75.99 75.80 76.25 76.36 76.19 75.89 76.78 76.55 76.42 76.36 76.33 76.74 76.44
76.88 74.33 63.20 60.79 60.77 63.15 65.44 65.79 66.13 64.12 64.76 65.35 65.23 62.77 64.17 67.56 71.12 71.29 72.44 72.94 72.92 72.98 74.95 75.23 77.31 77.43 77.17 77.60 77.17 77.21 77.10 77.13 77.02 76.75 76.14 76.55 77.03 76.39 76.28 76.30 76.22 76.41 77.00 76.96 76.52 76.55 76.64 75.97 75.50
72.11 69.82 60.59 58.66 60.77 63.93 65.22 66.50 66.07 65.17 65.77 65.84 65.77 64.08 64.23 70.54 70.26 70.54 71.89 73.08 73.86 73.35 73.75 75.41 77.21 77.20 77.26 77.57 77.27 77.05 76.77 76.52 76.87 76.99 76.79 76.94 76.47 76.33 76.28 76.19 76.47 76.28 76.44 76.44 76.03 76.19 76.25 76.13 75.58
69.72 64.35 61.02 61.00 61.06 62.92 64.27 67.25 65.35 65.35 65.30 64.91 67.97 62.31 66.31 68.44 70.44 71.67 72.34 72.65 73.95 74.13 74.14 75.85 76.50 77.50 77.40 77.19 76.91 76.66 76.50 76.19 76.13 75.82 75.51 76.52 76.71 76.52 76.41 76.44 76.39 76.41 76.36 76.39 76.05 76.46 76.16 75.80 75.22
71.29 65.48 61.47 61.59 60.48 61.48 66.58 67.17 67.55 66.27 65.53 69.02 69.44 64.27 63.97 68.01 71.00 72.37 72.65 73.31 74.15 74.04 74.62 75.64 76.47 76.23 76.46 77.35 77.24 76.50 76.05 75.89 75.83 75.75 75.64 76.30 76.42 74.20 75.16 76.32 76.25 75.89 76.19 76.63 76.30 75.83 75.39 74.97 74.80
73.86 62.76 60.17 60.80 61.95 63.56 66.51 65.30 67.90 69.02 66.57 67.19 67.91 68.38 68.70 70.36 71.85 71.85 72.39 72.39 72.42 73.00 73.59 73.94 74.57 75.46 75.77 76.07 77.28 76.72 76.58 76.36 76.22 76.27 76.08 75.83 74.75 74.67 73.69 76.53 75.94 76.28 76.16 76.48 76.02 75.80 75.17 74.86 75.11
67.09 62.06 61.53 65.23 66.03 65.31 66.40 66.14 66.59 65.62 65.43 65.44 66.56 68.67 69.62 70.08 70.18 69.76 70.21 70.49 71.44 72.51 72.67 74.15 74.37 74.53 75.39 74.81 77.60 77.74 76.64 75.60 75.55 77.46 76.81 76.94 76.78 76.53 74.64 75.67 75.66 76.19 76.11 76.21 76.16 75.96 75.66 75.46 75.30
65.63 62.51 64.90 65.44 67.30 67.61 66.82 67.03 67.71 65.22 64.19 66.74 65.32 66.96 68.97 69.28 69.45 69.41 69.69 70.43 71.08 72.80 73.29 73.44 75.91 75.61 75.00 76.58 74.96 75.11 76.46 76.91 75.59 76.49 77.23 77.03 75.48 75.67 75.29 73.89 74.25 75.44 75.77 75.45 75.35 75.41 73.34 74.82 74.22
63.88 65.91 66.76 67.22 68.06 67.39 66.43 68.20 66.40 66.74 67.74 69.19 68.31 69.12 69.38 68.60 68.45 68.43 68.73 69.44 71.17 72.44 73.67 74.28 75.20 75.89 75.91 75.90 74.96 76.66 75.31 76.17 75.03 75.92 76.92 78.95 75.40 76.17 75.72 75.47 73.24 74.58 74.44 73.36 75.48 74.42 74.58 73.31 75.27
65.14 65.89 67.09 68.27 68.36 67.95 68.25 66.60 66.55 66.92 69.02 69.67 69.34 69.36 68.98 69.21 69.10 69.50 69.37 69.68 71.27 72.13 73.20 73.95 75.24 76.23 75.87 76.64 76.10 76.75 78.08 75.43 77.03 76.32 76.80 76.91 76.58 75.39 76.83 76.12 77.18 75.88 74.44 75.09 76.08 75.14 74.33 74.34 74.25
66.50 66.26 66.77 68.02 67.73 68.03 67.10 67.18 68.11 67.65 68.60 68.72 68.68 68.72 69.15 69.41 69.65 69.90 69.69 70.04 71.78 72.88 73.08 74.05 74.56 75.97 76.12 76.35 77.28 77.03 78.09 76.11 76.69 77.25 76.40 78.05 79.29 77.95 75.82 75.55 75.48 75.66 75.77 74.59 74.33 73.57 73.08 72.67 72.57
66.26 64.43 66.27 66.63 67.53 67.09 68.44 65.91 65.65 67.91 68.00 67.37 67.84 68.48 68.96 69.49 70.24 69.78 70.55 71.77 72.67 73.28 73.56 73.22 74.14 75.47 76.05 76.34 76.76 76.92 76.03 76.03 77.61 76.16 77.83 77.47 78.54 76.30 75.58 78.38 75.10 74.94 73.92 72.96 73.61 74.38 74.21 72.76 73.66
64.21 64.20 60.55 64.65 65.98 67.67 67.32 62.44 67.66 67.84 67.37 66.61 67.33 67.79 68.32 69.02 69.87 70.95 71.74 72.76 73.86 72.93 73.98 74.57 74.20 73.68 75.76 76.40 76.95 76.47 77.08 76.90 78.74 76.98 77.35 77.55 76.98 76.64 77.47 77.42 76.74 75.58 74.64 74.83 75.68 75.37 75.69 73.96 73.88
62.87 53.33 58.60 60.54 64.95 64.90 65.37 63.30 68.29 68.53 67.02 66.49 66.92 67.40 67.78 68.65 70.08 71.71 72.60 73.26 73.93 74.25 74.69 74.72 75.00 74.18 74.89 77.87 78.02 78.12 78.08 76.73 77.20 77.40 77.34 77.76 77.30 77.10 78.70 77.89 75.31 75.89 76.41 75.25 75.64 75.02 76.48 74.80 74.11
56.41 58.14 58.30 57.62 61.36 62.61 62.93 63.43 67.73 68.81 66.93 66.59 66.80 67.30 67.68 68.30 69.22 71.50 72.47 73.52 74.04 74.33 74.96 75.48 75.79 77.07 77.99 77.46 79.96 76.84 75.90 76.72 76.92 77.37 77.42 78.50 77.45 77.33 76.63 76.55 77.69 76.86 75.72 75.42 75.54 75.66 76.22 75.75 75.29
60.58 58.95 57.71 59.59 61.10 60.95 60.73 61.52 65.09 68.89 68.19 66.58 66.97 67.23 67.46 68.01 70.16 71.56 72.42 73.14 73.63 74.43 74.68 75.19 75.71 77.07 76.88 76.06 75.58 76.07 74.15 75.84 75.82 77.77 78.54 78.22 77.29 77.74 78.11 79.08 76.65 76.63 76.04 76.35 76.64 76.36 75.21 76.86 74.94
59.88 58.71 58.34 59.85 60.92 60.71 61.27 60.22 63.42 67.83 68.48 68.42 67.48 67.56 68.15 68.69 69.53 71.16 72.18 72.78 73.52 74.00 74.73 75.46 75.83 77.09 77.12 76.46 76.63 75.70 77.71 75.98 76.35 76.92 78.22 78.32 77.20 78.20 77.94 77.86 77.17 77.43 75.78 76.72 76.70 76.23 75.58 76.41 75.28
59.50 58.46 58.00 57.94 60.09 60.71 60.31 58.97 61.62 65.14 68.61 69.27 69.31 69.30 69.43 69.51 69.70 70.89 71.87 72.60 73.73 74.02 74.74 75.47 76.83 77.78 77.99 78.59 76.97 77.36 79.03 76.88 75.55 74.19 73.66 74.42 77.11 77.46 77.91 78.20 77.18 77.97 78.17 77.15 77.89 77.38 74.89 73.87 74.65
56.60 60.13 59.13 57.88 57.65 54.27 59.61 53.13 60.09 63.36 65.73 67.94 68.85 69.19 69.37 70.15 70.90 71.80 72.32 72.89 73.66 74.46 75.62 76.14 77.41 78.60 78.09 79.65 78.68 78.94 75.57 74.68 74.40 74.67 75.12 74.98 77.69 77.32 77.82 77.87 77.75 77.83 77.36 76.83 76.43 76.08 75.21 75.20 73.64
57.05 60.34 58.78 58.43 57.15 56.57 56.65 54.51 57.63 63.45 62.87 65.77 67.99 69.19 69.90 70.70 71.01 71.52 72.62 73.61 74.37 75.00 75.57 76.49 78.19 79.59 80.22 79.85 80.06 76.75 77.24 75.65 75.53 74.83 76.33 75.35 76.92 77.29 77.28 77.35 77.54 77.26 77.34 76.33 75.78 75.42 76.16 74.55 72.91
58.97 57.93 58.52 58.11 56.78 52.08 55.52 54.85 54.59 58.24 58.97 62.97 66.91 68.77 69.95 70.53 71.60 72.20 73.30 73.80 74.12 74.92 75.78 76.39 77.75 79.40 80.18 79.25 78.70 79.72 77.78 77.61 75.57 75.61 74.48 74.27 75.17 75.64 76.83 76.70 76.55 76.75 76.05 75.23 74.80 74.15 73.51 72.44 71.94
55.92 53.87 50.05 50.20 50.46 49.92 56.08 54.72 56.41 59.79 61.22 61.33 62.08 64.70 69.23 70.78 71.33 71.77 72.29 72.81 73.67 74.08 75.24 76.03 78.09 79.23 79.89 78.81 78.66 78.73 79.21 78.03 76.91 76.10 74.57 75.25 73.91 74.36 75.90 75.90 75.42 74.63 74.90 74.30 73.93 72.77 71.50 70.63 69.63
53.31 52.93 49.47 46.58 47.92 49.72 55.50 51.98 57.03 61.68 62.29 62.29 62.62 64.44 65.30 69.53 71.30 71.88 72.61 72.92 73.52 74.02 75.37 76.76 78.61 79.10 78.52 78.94 79.60 80.17 79.91 77.25 76.58 76.53 74.59 75.36 75.02 74.58 76.36 75.15 74.54 73.52 73.39 72.90 72.25 70.19 68.97 69.57 68.43
52.00 50.18 54.45 50.23 51.25 48.97 51.71 55.34 60.49 60.93 60.76 61.44 61.70 62.20 64.55 68.15 70.27 71.60 72.63 73.25 74.53 74.70 75.94 77.66 78.98 79.90 79.40 77.90 79.20 78.59 78.96 79.13 77.83 77.12 77.17 75.90 76.73 75.11 74.85 74.16 73.34 72.07 71.34 70.59 69.62 68.82 68.61 68.68 67.67
53.12 54.96 49.70 50.25 45.53 45.04 49.32 51.86 53.50 58.41 59.47 60.53 60.87 60.86 65.33 68.47 69.63 71.35 72.38 73.58 74.47 74.86 75.88 77.11 79.32 79.37 78.34 77.41 77.45 77.42 77.54 78.12 77.87 77.51 77.71 76.82 76.44 75.20 73.86 72.90 71.97 70.66 69.82 69.37 69.35 68.72 68.15 67.07 64.83
51.76 50.45 51.45 51.89 50.81 47.46 46.57 49.64 57.50 59.53 60.68 60.37 61.54 62.40 64.01 68.32 69.67 71.01 72.23 73.25 74.99 75.30 75.68 76.16 77.09 77.59 77.20 76.97 77.75 77.83 77.19 77.35 77.07 76.92 77.02 76.28 74.69 73.73 72.93 72.24 70.68 69.20 68.49 68.52 69.06 68.36 66.81 64.72 63.78
53.99 52.31 52.38 47.73 48.19 49.77 49.16 49.54 58.74 59.26 59.53 60.20 60.66 62.29 64.04 68.00 69.68 70.70 72.03 72.98 73.74 76.44 76.89 76.44 76.80 77.15 77.24 77.27 78.15 77.13 77.28 77.44 76.62 76.16 75.47 74.61 73.13 72.92 72.33 70.54 68.90 68.12 67.88 68.04 66.98 65.83 64.77 62.50 61.91
MSLP
1007.18 1006.95 1006.87 1005.93 1005.06 1002.72 1002.92 1004.17 1004.72 1005.69 1006.54 1007.65 1008.86 1008.96 1009.35 1009.58 1010.04 1012.31 1012.85 1013.38 1013.38 1012.69 1013.37 1013.72 1013.95 1014.17 1014.06 1014.08 1014.37 1014.55 1014.72 1014.75 1014.82 1014.94 1015.12 1015.26 1015.36 1015.45 1015.63 1015.71 1015.81 1016.01 1016.03 1016.07 1016.19 1016.18 1016.29 1016.41 1016.51
1005.57 1005.83 1005.44 1004.17 1003.42 1001.55 1002.91 1003.82 1004.63 1005.16 1006.22 1007.95 1008.32 1008.27 1008.43 1008.97 1010.11 1011.75 1012.76 1012.93 1012.29 1012.37 1012.62 1013.35 1014.26 1014.43 1014.39 1014.51 1014.56 1014.82 1014.91 1015.01 1015.13 1015.22 1015.24 1015.36 1015.57 1015.57 1015.71 1015.90 1015.99 1016.07 1016.14 1016.18 1016.27 1016.32 1016.45 1016.56 1016.58
1005.21 1005.44 1004.67 1002.00 1001.31 1001.79 1002.21 1002.94 1003.79 1005.48 1006.53 1006.28 1006.44 1006.69 1006.87 1008.55 1010.51 1011.61 1011.77 1012.00 1011.74 1012.10 1012.51 1013.80 1014.31 1014.52 1014.59 1014.68 1014.83 1015.02 1015.06 1015.17 1015.35 1015.41 1015.45 1015.51 1015.71 1015.69 1015.78 1016.01 1016.09 1016.18 1016.26 1016.34 1016.37 1016.46 1016.61 1016.67 1016.70
1005.14 1004.29 1002.81 1000.95 1001.52 1001.80 1002.11 1002.92 1003.76 1004.40 1005.47 1005.54 1005.62 1006.74 1007.93 1008.67 1010.15 1010.47 1011.40 1011.55 1011.60 1011.57 1011.93 1013.88 1014.27 1014.53 1014.72 1014.82 1015.09 1015.28 1015.20 1015.34 1015.54 1015.58 1015.56 1015.67 1015.79 1015.77 1015.88 1015.96 1016.13 1016.28 1016.36 1016.38 1016.49 1016.63 1016.74 1016.86 1016.96
1003.76 1001.98 1000.22 1000.99 1001.87 1002.37 1002.37 1003.10 1003.49 1003.92 1004.47 1004.82 1005.87 1006.26 1008.42 1009.26 1009.75 1010.75 1011.03 1011.26 1011.70 1011.51 1012.61 1013.67 1014.40 1014.68 1014.93 1015.10 1015.30 1015.30 1015.43 1015.47 1015.63 1015.70 1015.73 1015.83 1015.83 1015.91 1016.03 1016.05 1016.13 1016.34 1016.35 1016.47 1016.65 1016.75 1016.86 1017.03 1017.15
1002.17 999.31 999.42 1000.40 1001.72 1002.48 1002.88 1003.01 1003.03 1003.36 1003.86 1004.81 1005.36 1006.71 1008.48 1009.39 1010.07 1010.81 1011.03 1010.80 1011.18 1011.61 1012.25 1013.66 1014.59 1014.93 1015.05 1015.19 1015.36 1015.45 1015.60 1015.64 1015.75 1015.76 1015.86 1015.94 1016.04 1016.17 1016.24 1016.22 1016.23 1016.40 1016.46 1016.62 1016.77 1016.91 1017.04 1017.13 1017.28
1000.51 998.73 999.30 1000.15 1001.39 1002.40 1003.09 1002.98 1002.70 1003.27 1003.93 1004.43 1005.19 1006.76 1008.12 1009.05 1009.96 1010.59 1010.84 1010.54 1010.50 1010.61 1011.54 1012.92 1013.74 1014.62 1015.08 1015.31 1015.47 1015.61 1015.67 1015.72 1015.84 1015.90 1015.96 1016.10 1016.27 1016.26 1016.27 1016.36 1016.41 1016.47 1016.57 1016.71 1016.97 1017.07 1017.21 1017.26 1017.34
999.65 998.55 998.76 999.70 1000.95 1002.31 1003.05 1002.91 1003.35 1003.21 1003.80 1004.67 1004.72 1005.91 1007.44 1008.69 1009.57 1010.22 1010.67 1010.73 1011.06 1010.88 1011.48 1012.32 1013.18 1014.12 1014.56 1014.92 1015.41 1015.61 1015.67 1015.77 1015.84 1015.86 1015.97 1016.04 1016.13 1016.13 1016.20 1016.35 1016.43 1016.51 1016.61 1016.74 1017.00 1017.22 1017.34 1017.43 1017.33
998.94 998.02 998.58 999.36 1000.50 1002.06 1002.80 1003.03 1003.47 1003.83 1004.37 1004.64 1005.01 1005.02 1006.76 1008.30 1009.52 1010.27 1011.12 1011.65 1012.22 1012.05 1012.35 1012.40 1012.70 1013.06 1013.18 1013.68 1014.90 1015.49 1015.63 1015.69 1015.65 1015.64 1015.74 1015.82 1015.90 1015.56 1016.12 1015.96 1016.44 1016.48 1016.60 1016.71 1016.80 1017.13 1017.33 1017.40 1017.29
997.92 998.20 999.17 999.66 1000.23 1001.65 1002.31 1002.60 1003.31 1003.73 1004.05 1004.62 1004.80 1005.44 1006.99 1008.15 1008.74 1009.29 1009.92 1010.62 1011.39 1011.89 1012.16 1011.46 1011.50 1011.89 1012.37 1012.76 1014.28 1014.46 1014.58 1014.71 1014.99 1015.18 1015.06 1014.97 1014.86 1015.07 1015.94 1015.82 1016.20 1016.45 1016.61 1016.74 1016.84 1017.02 1017.08 1017.13 1017.01
997.47 998.33 999.22 1000.04 1000.46 1001.37 1002.11 1002.67 1003.13 1003.00 1003.36 1004.04 1004.59 1005.86 1007.06 1007.86 1008.48 1008.80 1009.31 1009.87 1010.44 1011.08 1010.86 1011.01 1011.61 1011.78 1012.28 1012.91 1013.34 1014.03 1014.26 1014.32 1014.20 1014.75 1014.90 1014.95 1014.51 1014.85 1014.89 1015.82 1015.74 1015.99 1016.54 1016.54 1016.66 1016.76 1017.05 1017.07 1016.92
997.36 998.64 999.24 1000.13 1000.80 1001.32 1001.62 1002.19 1002.31 1002.46 1002.83 1003.31 1004.62 1005.85 1006.84 1007.51 1007.92 1008.31 1008.79 1009.33 1009.99 1010.60 1010.54 1010.76 1011.53 1012.32 1012.50 1012.89 1013.23 1013.33 1014.00 1013.76 1013.56 1014.23 1014.78 1015.00 1014.74 1014.72 1015.09 1015.37 1015.82 1015.66 1015.73 1015.72 1015.61 1015.69 1015.75 1016.69 1016.68
997.40 998.33 999.22 1000.15 1000.57 1000.89 1001.66 1001.91 1002.08 1002.61 1003.32 1003.40 1004.53 1005.73 1006.53 1006.96 1007.43 1007.84 1008.25 1008.74 1009.62 1010.37 1010.68 1010.91 1011.88 1012.81 1013.18 1013.51 1013.14 1013.50 1013.68 1013.59 1013.87 1013.94 1014.66 1014.84 1014.99 1015.05 1014.88 1015.30 1015.26 1015.52 1015.85 1015.60 1015.55 1015.49 1015.78 1015.92 1016.09
998.08 998.31 998.89 999.70 1000.32 1000.76 1000.95 1001.57 1002.08 1002.71 1003.09 1003.33 1004.40 1005.36 1005.99 1006.43 1006.84 1007.34 1007.83 1008.36 1008.99 1009.76 1010.17 1010.73 1011.62 1012.78 1013.23 1013.78 1013.61 1013.57 1013.62 1013.96 1013.65 1014.25 1014.55 1014.97 1015.45 1015.63 1015.82 1015.55 1015.53 1015.31 1015.76 1016.29 1016.30 1016.45 1016.60 1016.96 1017.07
997.65 997.85 997.94 998.72 999.71 1000.02 999.74 1000.19 1001.29 1002.51 1002.97 1003.47 1004.16 1004.84 1005.38 1005.89 1006.38 1006.91 1007.53 1007.97 1008.61 1009.16 1009.58 1010.43 1011.50 1012.33 1013.26 1013.60 1013.81 1013.57 1013.74 1013.34 1013.70 1013.99 1014.07 1014.81 1015.23 1015.43 1015.59 1015.69 1015.64 1015.92 1016.24 1016.39 1016.56 1016.42 1016.55 1016.88 1016.23
997.72 997.93 996.48 998.04 999.21 999.84 999.95 1000.10 1001.28 1002.36 1002.77 1003.23 1003.94 1004.50 1004.99 1005.46 1005.91 1006.63 1007.24 1007.65 1008.21 1008.83 1009.62 1010.32 1010.82 1011.61 1012.83 1013.12 1013.51 1013.28 1013.46 1013.46 1013.66 1013.22 1013.60 1014.36 1014.82 1014.81 1015.07 1015.62 1015.83 1015.68 1016.08 1015.71 1015.52 1015.85 1015.93 1016.00 1015.73
997.43 999.41 997.60 997.47 998.59 999.06 999.66 999.26 1000.94 1001.94 1002.33 1002.82 1003.45 1003.94 1004.53 1005.07 1005.51 1006.21 1006.78 1007.41 1007.64 1008.49 1009.12 1010.05 1010.73 1011.33 1012.21 1012.81 1013.06 1013.23 1013.50 1013.40 1013.69 1013.07 1013.37 1014.10 1014.17 1014.38 1014.94 1015.18 1015.29 1015.75 1015.65 1015.43 1015.38 1015.40 1015.81 1015.98 1015.74
997.97 996.54 996.85 997.27 997.79 998.34 998.64 998.81 999.97 1001.27 1001.56 1002.07 1002.68 1003.21 1003.90 1004.34 1004.90 1005.59 1006.29 1007.03 1007.33 1008.23 1009.07 1009.81 1010.41 1011.20 1011.97 1012.44 1013.37 1013.50 1013.40 1013.14 1013.36 1013.01 1013.28 1014.00 1014.32 1014.36 1014.46 1014.19 1014.78 1015.03 1014.98 1014.88 1015.11 1015.46 1015.43 1015.48 1015.14
996.99 996.49 996.78 997.00 997.67 997.88 997.47 997.55 998.07 999.74 1000.60 1001.08 1001.73 1002.39 1002.98 1003.52 1004.25 1005.06 1005.95 1006.58 1007.26 1007.81 1008.89 1009.75 1010.17 1010.95 1011.70 1012.17 1012.81 1012.62 1012.68 1012.72 1012.88 1013.06 1013.62 1014.04 1014.30 1014.42 1014.51 1014.60 1014.52 1014.45 1014.72 1014.94 1015.34 1015.46 1015.43 1015.36 1015.06
996.84 996.76 996.51 996.62 997.17 997.42 996.73 996.32 996.60 997.92 999.32 999.89 1000.68 1001.48 1002.00 1002.63 1003.52 1004.62 1005.45 1006.01 1006.77 1007.66 1008.45 1009.39 1010.14 1010.79 1011.68 1011.80 1012.26 1012.28 1012.20 1012.40 1012.74 1013.38 1013.76 1014.18 1014.33 1014.38 1014.44 1014.32 1014.22 1014.40 1014.48 1014.89 1015.35 1015.41 1015.43 1015.42 1014.82
996.66 996.34 996.13 996.36 996.75 996.45 995.82 995.20 995.51 996.24 997.88 998.97 999.60 1000.39 1001.09 1001.67 1002.31 1003.70 1004.67 1005.35 1006.25 1007.18 1008.01 1008.86 1009.77 1010.52 1011.35 1011.37 1012.31 1012.46 1012.57 1013.06 1013.51 1014.14 1014.52 1014.76 1014.50 1014.47 1014.48 1014.31 1014.60 1014.52 1014.74 1015.15 1015.26 1015.11 1014.75 1015.14 1014.81
995.97 996.03 996.19 996.80 996.74 995.42 995.46 994.75 994.26 996.69 996.79 997.74 998.43 999.11 999.93 1000.70 1001.43 1002.38 1003.59 1004.47 1005.19 1006.30 1007.49 1008.22 1009.22 1009.99 1010.90 1011.28 1011.80 1012.01 1011.98 1012.59 1012.95 1013.88 1014.22 1014.68 1014.19 1014.21 1014.30 1014.50 1014.43 1014.59 1014.72 1014.64 1014.79 1014.76 1015.05 1015.14 1014.96
996.43 996.26 996.56 997.02 996.78 996.11 995.08 994.57 994.25 995.10 996.10 996.24 997.23 997.77 998.62 999.62 1000.52 1001.02 1002.26 1003.27 1004.13 1005.23 1006.46 1007.48 1008.59 1009.48 1010.14 1010.93 1011.21 1011.66 1011.58 1011.82 1012.74 1013.19 1013.92 1014.22 1014.49 1014.39 1014.22 1014.40 1014.50 1014.50 1014.59 1014.85 1014.92 1014.89 1014.92 1014.73 1014.27
997.04 996.77 996.75 997.16 996.73 995.73 995.00 994.26 993.46 994.57 995.09 994.61 994.93 996.38 997.36 998.30 999.75 1000.40 1001.48 1002.45 1003.30 1004.22 1005.49 1006.64 1007.93 1009.04 1009.78 1010.46 1010.94 1011.10 1011.34 1011.37 1011.83 1012.37 1013.06 1013.42 1013.88 1014.30 1014.13 1014.32 1014.53 1014.62 1014.67 1014.85 1014.89 1015.26 1015.39 1015.38 1015.19
997.02 996.78 996.10 995.84 995.34 994.46 994.05 993.44 992.75 992.76 993.82 993.41 993.88 994.69 995.93 997.10 998.41 999.93 1000.44 1001.31 1002.52 1003.26 1004.63 1005.88 1007.22 1008.45 1009.20 1009.88 1010.49 1010.80 1010.96 1011.41 1011.82 1012.42 1012.40 1012.63 1012.92 1013.55 1014.21 1014.52 1014.79 1014.83 1015.06 1015.17 1015.27 1015.56 1015.59 1015.63 1015.57
996.12 996.16 995.41 994.88 994.39 993.63 992.90 992.12 991.85 992.52 992.81 993.15 993.32 994.19 994.95 995.92 997.00 998.63 999.72 1000.63 1001.77 1002.71 1003.89 1005.24 1006.60 1007.81 1008.64 1009.29 1009.84 1010.39 1010.85 1011.26 1011.55 1012.16 1011.93 1012.16 1012.83 1013.24 1013.93 1014.39 1014.74 1015.12 1015.26 1015.28 1015.49 1015.36 1015.50 1016.17 1016.06
996.40 995.80 995.45 994.90 994.34 993.55 992.61 991.53 992.17 992.11 992.67 993.06 992.96 993.41 994.35 995.32 996.14 997.41 998.88 999.90 1001.03 1002.25 1003.33 1004.62 1006.07 1007.32 1008.15 1008.86 1009.60 1010.12 1010.62 1010.72 1010.90 1011.69 1012.05 1012.42 1012.78 1013.61 1014.28 1014.78 1015.04 1015.31 1015.43 1015.52 1015.80 1015.78 1016.10 1016.32 1016.29
996.60 996.13 995.21 995.13 994.68 993.78 992.85 991.94 991.24 991.57 992.11 992.67 992.73 993.03 993.98 995.03 995.75 996.58 997.97 999.24 1000.42 1001.73 1003.02 1004.30 1005.66 1006.67 1007.41 1008.10 1008.90 1009.46 1010.05 1010.60 1010.76 1011.36 1012.00 1012.48 1012.93 1013.75 1014.66 1014.94 1015.19 1015.28 1015.42 1015.49 1015.54 1015.98 1016.59 1016.72 1016.55
996.18 996.23 995.78 995.30 994.26 993.45 992.82 991.99 991.20 991.00 991.60 992.58 992.71 993.21 993.93 994.81 995.35 996.05 997.16 998.57 999.83 1000.99 1002.26 1003.71 1005.10 1006.00 1006.70 1007.28 1008.05 1008.77 1009.48 1010.16 1010.78 1011.35 1011.98 1012.61 1013.46 1014.14 1014.63 1014.94 1015.26 1015.58 1015.75 1015.71 1015.68 1016.23 1016.81 1017.04 1017.10
995.78 995.21 995.17 995.10 994.99 994.53 993.61 992.02 991.63 991.94 992.11 992.48 993.36 993.98 994.41 994.58 995.04 995.45 996.33 997.69 999.06 1000.36 1001.54 1002.79 1004.09 1004.93 1005.77 1006.49 1007.46 1008.19 1009.01 1009.74 1010.58 1011.33 1011.98 1012.76 1013.47 1014.06 1014.59 1015.26 1015.38 1015.37 1015.62 1016.11 1016.18 1016.00 1016.72 1017.04 1017.10
Wind_Speed
16 14 8 9 5 2 13 17 14 17 11 14 9 7 4 4 4 8 5 12 11 12 12 10 10 11 13 14 14 14 12 10 10 9 10 10 8 8 7 6 6 5 4 3 3 5 7 9 10
15 13 6 6 4 13 10 15 13 15 20 15 11 12 9 7 11 15 14 15 14 12 13 14 10 11 13 13 14 13 12 11 10 9 9 9 8 7 6 6 6 5 3 6 6 7 8 9 11
11 6 5 6 9 10 11 13 19 22 21 16 14 9 6 19 18 16 12 17 17 15 13 14 12 10 11 11 11 10 11 10 10 9 8 8 7 6 5 5 5 5 5 7 7 9 8 10 11
6 6 8 10 15 14 13 14 15 19 17 10 13 15 12 22 19 14 21 19 12 14 17 14 12 10 9 10 10 8 8 10 9 9 8 8 6 5 5 5 6 6 6 7 7 8 8 9 8
9 8 7 12 14 12 13 12 13 12 9 10 7 18 15 10 13 22 18 15 12 8 14 12 9 9 10 10 8 8 6 8 8 9 8 7 7 6 5 6 7 6 7 8 8 8 8 7 6
6 5 10 11 12 11 9 10 10 8 8 10 13 17 15 14 19 17 17 19 19 17 18 15 11 10 9 10 9 7 6 6 7 7 7 6 6 6 6 6 6 6 6 6 7 7 7 8 6
16 8 11 14 11 11 7 5 3 8 8 8 14 15 14 18 19 19 13 12 12 15 17 15 14 11 9 9 8 6 5 4 3 4 4 5 7 7 6 6 6 6 5 5 6 7 7 6 5
7 5 13 9 10 10 10 4 5 7 10 11 15 14 19 18 20 17 8 11 5 7 15 13 13 13 11 11 9 6 4 3 3 5 5 6 9 8 7 8 7 7 7 8 7 7 6 5 4
11 3 10 15 14 11 8 9 5 5 10 7 4 13 22 25 22 19 16 13 8 4 10 11 13 14 12 13 11 8 7 7 7 9 8 9 5 9 9 7 9 8 8 9 7 5 5 5 7
8 10 12 12 13 12 9 8 9 8 10 10 8 22 21 23 21 19 18 17 18 15 14 14 14 13 10 6 12 7 10 9 7 8 9 6 8 6 9 9 11 9 8 9 9 8 6 6 1
15 10 12 8 13 9 8 10 8 11 9 12 17 23 22 22 19 18 17 16 16 15 14 13 8 10 11 8 7 6 2 3 6 3 4 4 4 4 4 3 6 8 9 7 9 8 4 6 2
15 7 11 8 8 8 5 8 6 1 8 16 16 22 22 20 19 17 16 16 15 14 13 12 10 6 5 6 6 4 7 7 4 7 7 3 3 4 4 2 6 4 6 4 8 6 7 9 7
14 8 10 9 8 8 5 3 7 5 6 9 17 21 21 20 18 17 16 15 14 14 12 10 12 8 8 5 5 2 1 3 1 5 7 4 2 4 2 0 3 3 4 3 1 3 3 5 1
7 3 8 9 5 7 7 8 9 8 7 14 19 22 20 19 18 16 15 14 16 15 15 12 12 13 10 8 5 4 3 5 4 2 4 1 1 1 5 4 5 1 3 3 3 3 1 2 3
7 11 14 9 7 4 10 13 5 11 10 15 19 20 19 18 18 16 15 14 13 13 14 13 13 14 11 10 8 6 4 5 4 4 5 4 4 6 8 3 4 3 0 1 0 5 4 5 8
13 10 4 13 6 6 13 13 11 12 14 16 19 18 17 18 18 16 15 13 14 13 11 10 12 15 13 11 9 5 4 1 1 6 6 5 3 2 6 4 2 3 5 7 7 6 5 6 6
11 13 4 9 7 3 4 4 13 13 14 15 17 18 16 17 17 16 16 14 15 12 14 14 12 11 13 10 6 3 1 4 5 3 2 5 2 4 5 5 6 5 5 6 4 6 4 4 6
21 2 6 3 7 5 6 7 15 14 15 15 17 17 17 17 18 18 16 16 12 15 11 11 10 7 12 6 5 7 4 6 6 4 2 4 2 4 3 7 6 6 5 6 4 4 6 6 7
11 7 5 2 4 7 4 5 12 18 17 17 16 16 17 18 18 17 17 16 16 14 15 15 11 11 8 8 9 7 7 6 6 5 3 4 4 3 4 2 5 6 4 4 4 5 5 4 6
6 11 10 2 5 8 12 10 9 20 17 17 18 17 17 18 19 18 18 18 16 15 15 15 14 11 10 9 6 1 4 6 4 4 3 1 4 4 6 5 3 6 2 4 4 4 3 3 6
15 16 13 8 11 16 15 14 12 16 18 17 17 18 18 18 21 20 20 19 18 17 17 16 15 14 12 10 7 4 5 5 5 2 1 3 6 4 6 4 2 2 2 2 5 5 2 1 5
19 15 9 6 13 13 6 11 13 7 16 18 17 19 19 19 19 22 21 21 20 19 18 17 16 15 14 12 10 10 8 6 5 5 4 4 8 2 5 3 4 2 4 0 2 1 3 3 5
18 17 7 12 15 17 18 10 10 14 9 16 16 18 20 21 20 21 22 21 21 20 19 18 17 15 14 13 11 10 10 8 8 7 8 6 5 8 5 3 3 3 5 3 3 3 4 5 4
21 20 12 16 16 15 18 17 13 9 19 12 19 17 18 21 22 20 21 20 19 19 18 18 18 15 15 15 15 13 11 6 7 7 8 7 6 4 5 4 3 1 0 1 1 3 3 5 5
13 18 15 17 16 14 18 17 16 3 6 5 8 10 19 20 24 21 21 21 20 21 20 17 18 16 16 17 16 14 11 10 7 9 8 5 6 4 7 4 3 4 1 2 2 2 2 5 6
17 17 15 21 17 16 20 19 6 8 13 4 5 8 2 18 21 25 22 20 21 21 21 18 18 17 18 17 16 13 12 9 9 10 6 4 3 6 9 6 4 3 2 2 1 3 3 4 5
19 19 17 21 20 17 18 13 8 4 8 13 10 2 8 12 19 25 25 22 20 19 19 18 19 17 17 18 14 14 13 12 10 9 8 5 6 7 6 6 5 4 2 2 0 6 3 2 3
17 17 15 12 20 19 16 18 11 10 3 5 8 6 8 9 16 21 23 22 21 21 18 19 19 18 19 19 16 15 15 13 10 8 8 8 6 7 8 6 6 6 5 4 2 5 4 3 4
12 16 18 20 14 13 14 14 17 17 9 9 11 8 2 11 15 18 21 23 20 21 21 20 20 21 20 18 16 15 14 15 12 9 9 9 9 9 8 7 6 5 5 5 5 7 5 3 4
12 16 16 14 19 15 16 15 6 3 3 5 5 7 7 7 14 17 21 23 22 19 19 20 21 21 20 18 16 16 15 14 11 11 11 10 11 10 9 7 7 7 7 6 7 6 7 4 5
Wind_Direction
174 195 212 228 263 195 66 82 115 110 121 110 141 129 128 34 82 130 154 173 191 169 136 147 130 130 112 112 131 144 147 142 133 134 140 145 146 139 135 132 127 119 106 104 95 85 97 111 106
181 187 222 260 243 81 79 109 101 98 108 131 145 156 173 85 97 119 140 190 176 135 148 136 134 133 121 119 121 133 141 136 134 138 147 143 150 150 147 145 126 111 103 107 117 107 103 114 115
249 176 248 226 38 72 83 85 101 114 136 173 108 140 106 117 109 140 147 176 169 158 136 120 138 133 127 124 126 137 141 138 137 145 150 148 153 153 147 147 138 129 124 113 120 108 108 111 114
158 218 239 58 64 56 90 95 115 134 153 130 116 90 73 103 138 158 153 154 155 156 122 125 135 136 140 138 140 146 144 141 148 149 153 151 154 159 161 157 138 134 121 120 119 113 109 101 109
239 255 95 81 75 63 72 99 125 143 135 136 105 125 107 135 118 135 154 142 138 140 111 130 137 150 154 151 147 145 148 145 152 149 161 165 153 143 145 140 127 121 106 113 119 111 109 108 107
268 242 65 73 88 98 103 130 134 130 132 92 119 115 128 133 140 149 159 162 167 167 149 138 153 159 163 147 141 142 150 144 153 149 158 156 138 142 142 129 126 119 125 119 118 115 113 112 107
242 75 82 93 93 92 114 146 116 121 105 152 119 133 139 149 152 152 172 154 155 146 134 151 159 161 160 153 144 135 126 125 123 104 145 155 148 143 146 126 132 128 132 124 118 120 117 114 109
300 327 75 72 86 99 130 160 63 131 91 111 155 141 159 157 152 154 136 139 130 143 130 152 144 160 173 159 144 142 133 132 132 116 127 164 159 157 154 154 147 156 158 143 137 129 127 125 124
254 26 55 46 78 115 140 122 148 53 127 159 177 128 153 147 160 157 161 157 164 200 163 173 168 171 196 156 143 167 172 181 184 172 174 197 222 177 142 124 149 164 157 153 148 145 150 175 194
203 62 52 57 112 118 133 127 124 153 147 133 184 126 142 155 167 168 169 166 177 172 199 187 172 167 162 139 146 189 178 194 186 147 188 232 217 113 153 148 160 169 172 174 176 170 193 223 274
48 74 84 55 81 119 114 116 149 150 165 150 139 146 156 165 172 178 177 174 181 182 200 174 174 159 160 133 175 171 143 247 154 189 227 218 184 211 145 156 157 170 184 172 191 190 200 257 227
101 58 78 101 109 117 153 129 155 306 65 140 157 157 167 174 178 183 183 178 180 188 205 165 150 143 212 143 207 116 172 210 184 159 214 123 242 235 191 89 202 171 185 187 203 198 174 213 208
107 101 95 98 145 130 135 149 95 110 153 153 151 163 174 181 181 187 186 177 180 183 187 182 160 168 202 217 164 213 108 204 237 171 173 195 235 292 308 163 328 91 29 290 139 296 182 265 213
91 103 104 151 127 129 169 144 215 125 192 147 159 171 179 185 182 184 189 185 185 177 181 192 181 170 201 199 228 200 178 209 199 126 172 157 29 227 325 226 263 66 72 30 62 62 61 346 319
151 171 168 140 149 149 241 147 184 138 169 161 169 176 181 186 183 183 190 193 182 182 177 184 186 168 198 196 197 227 210 223 125 268 141 134 160 195 213 220 211 171 214 46 190 226 209 229 236
219 243 163 111 143 135 263 151 129 159 170 172 175 180 183 187 184 184 186 190 178 184 169 178 186 167 181 186 191 222 208 222 85 233 117 138 155 205 174 178 167 158 200 223 208 216 220 259 248
219 209 43 107 142 172 233 72 137 171 177 178 184 183 188 189 192 182 182 197 175 194 172 177 191 166 164 176 195 254 88 225 232 245 137 114 173 122 161 155 174 217 210 241 209 254 216 224 240
261 17 84 32 105 191 221 228 152 186 188 189 189 186 190 193 195 180 193 186 199 170 173 204 176 163 166 152 134 214 203 219 209 197 168 120 128 184 188 147 152 212 200 207 213 229 229 209 217
268 356 311 84 61 286 296 272 180 177 200 192 196 194 190 196 187 184 191 182 183 181 181 180 202 172 174 187 186 202 212 197 197 159 108 169 193 185 220 219 180 227 210 229 205 231 240 270 284
257 268 267 191 153 277 279 280 182 170 199 203 196 195 197 189 176 182 188 182 188 190 179 182 194 176 192 199 193 262 209 172 177 196 157 240 223 191 218 258 234 204 73 159 198 220 241 260 264
256 265 279 318 319 269 257 274 176 171 178 200 199 197 200 196 182 185 188 190 186 183 186 185 187 180 191 212 173 196 127 134 143 81 129 240 238 213 251 228 233 183 266 233 225 228 313 298 280
263 264 338 304 269 285 300 301 222 149 180 189 200 201 198 198 200 177 189 191 191 183 189 188 184 183 189 203 180 197 193 182 174 182 179 218 227 209 248 239 232 208 238 311 169 237 339 319 289
265 289 320 297 282 279 270 254 133 194 184 187 198 203 201 192 202 188 188 192 194 184 188 191 186 185 185 190 197 185 226 177 175 180 166 211 183 214 209 201 215 204 253 108 311 296 305 291 299
266 271 266 257 258 259 266 274 271 128 193 207 173 188 206 201 193 207 186 190 192 185 182 188 183 187 190 187 205 195 189 204 160 176 173 174 193 179 196 187 202 255 74 148 307 354 68 353 336
247 249 249 242 234 244 251 245 255 182 183 325 94 157 183 203 187 200 190 189 189 186 179 183 176 186 191 190 196 194 195 202 186 183 202 176 179 181 170 179 186 175 108 73 11 51 61 42 10
226 244 254 254 258 261 251 245 217 250 273 330 261 154 243 187 197 189 199 193 184 190 179 182 171 182 191 191 191 189 188 191 204 199 182 189 154 121 147 166 156 155 151 117 81 167 16 37 62
250 258 265 275 274 272 281 283 262 261 285 267 257 33 160 198 200 188 196 191 181 191 181 180 170 180 184 189 188 187 188 209 199 174 195 188 155 125 139 152 144 128 116 43 36 75 103 125 41
268 281 262 227 261 272 273 268 264 251 144 291 270 76 139 201 197 193 191 195 179 188 181 182 173 180 180 185 187 189 191 202 190 178 186 187 133 129 149 156 157 150 144 143 191 166 103 60 39
205 236 251 275 282 267 253 254 261 243 190 249 279 109 188 188 191 198 190 191 188 186 180 184 181 186 185 185 184 186 190 191 190 176 183 165 142 149 165 167 157 149 135 138 105 78 114 86 84
291 282 230 235 246 254 283 289 255 333 281 187 358 317 307 214 195 196 190 188 190 183 181 186 185 190 187 183 178 182 187 185 178 167 168 157 157 164 158 161 158 151 144 145 147 166 113 129 116